Regional Weather Roundup
Issued by NWS

Home | Current Version | Previous Version | Text Only | Print | Product List | Glossary Off
Versions: 1 2 3 4 5 6 7 8 9 10 11 12 13 14 15 16 17 18 19 20 21 22 23 24 25 26 27 28 29 30 31 32 33 34 35 36 37 38 39 40 41 42 43 44 45 46 47 48 49 50

000
ASUS45 KSLC 021510
RWRUT

UTAH REGIONAL WEATHER ROUNDUP
NATIONAL WEATHER SERVICE SALT LAKE CITY UT
900 AM MDT WED SEP 02 2015

UTZ001>011-023>025-021600-

NORTHERN UTAH

CITY           SKY/WX    TMP DP  RH WIND       PRES   REMARKS
BRIGHAM CITY   SUNNY     81  35  19 S17G26    30.00R
HILL AFB       SUNNY     77  45  31 S18       30.04S
LOGAN          SUNNY     80  38  22 S14       30.00R
OGDEN          SUNNY     79  43  27 S23G30    30.01S
PROVO AIRPORT  MOSUNNY   72  45  37 SE6       30.09S
SALT LAKE CITY MOSUNNY   78  45  30 S21       30.02R
VERNAL         SUNNY     63  45  51 CALM      30.18F
WENDOVER       SUNNY     75  36  23 S16       29.98R
HEBER CITY     MOSUNNY   63  45  51 CALM      30.15S
WEST JORDAN    SUNNY     73  45  35 S20G25    30.06S

$$

UTZ012>022-026-027-021600-

SOUTHERN/CENTRAL UTAH

CITY           SKY/WX    TMP DP  RH WIND       PRES   REMARKS
BLANDING       PTSUNNY   67  49  53 S5        30.31S
BRYCE CANYON   SUNNY     58  45  62 CALM      30.34S
CEDAR CITY     MOSUNNY   71  46  40 SW5       30.18R
DELTA          SUNNY     74  42  31 S17       30.09S
HANKSVILLE     SUNNY     61  54  77 CALM      30.16R
MILFORD        SUNNY     71  44  37 SW15      30.12S
MOAB/CYNLANDS  MOSUNNY   67  55  65 SE6       30.13R
PRICE          SUNNY     66  44  45 CALM      30.21S
ST GEORGE      MOSUNNY   81  48  32 SE6       30.04R
KANAB          SUNNY     66  54  63 N3        30.24R

$$

REGIONAL REPORTS     COLORADO/ARIZONA

CITY           SKY/WX    TMP DP  RH WIND       PRES   REMARKS
CRAIG, CO      SUNNY     64  45  49 E13       30.24F
GRAND JUNCTION SUNNY     70  49  47 SE10      30.17S
RIFLE          SUNNY     59  50  72 CALM      30.25S
MONTROSE       SUNNY     65  48  54 E3        30.26S
CORTEZ         SUNNY     63  49  60 E3        30.25S
PAGE, AZ       SUNNY     76  50  40 CALM      30.13R
GRAND CANYON   MOSUNNY   63  54  72 CALM      30.31S
KINGMAN        SUNNY     78  49  35 CALM      30.06R
FLAGSTAFF      MOSUNNY   63  54  72 SW9       30.34S

$$

REGIONAL REPORTS    NEVADA/IDAHO/WYOMING

CITY           SKY/WX    TMP DP  RH WIND       PRES   REMARKS
LAS VEGAS, NV  MOSUNNY   85  55  35 S5        29.90R
ELY            MOSUNNY   68  43  40 SW15      30.15F
ELKO           SUNNY     59  29  31 CALM      30.04S
POCATELLO, ID  SUNNY     77  34  21 S10       29.97R
BURLEY         SUNNY     64  47  53 SW7       29.95R
EVANSTON, WY   SUNNY     66  39  37 SW14      30.21S
ROCK SPRINGS   SUNNY     64  45  49 S7        30.20S
KEMMERER       SUNNY     66  34  30 SW22G30   30.20F

$$


USA.gov is the U.S. government's official web portal to all federal, state and local government web resources and services.